Akri, Greece

2:32 PM EET on January 24, 2017 (GMT +0200)
Filippos

Weather History for LGKZ - May, 2013

Change the Weather History Date:

Sunday, May 19, 2013

  Actual Average Record
Temperature  
Mean Temperature 70 °F -  
Max Temperature 86 °F - - ()
Min Temperature 53 °F - - ()
Cooling Degree Days 4    
Growing Degree Days 20 (Base 50)    
Moisture  
Dew Point 46 °F    
Average Humidity 45    
Maximum Humidity 72    
Minimum Humidity 19    
Precipitation  
Precipitation 0.00 in - - ()
Sea Level Pressure  
Sea Level Pressure 30.02 in    
Wind  
Wind Speed 4 mph ()    
Max Wind Speed 9 mph    
Max Gust Speed -    
Visibility 6.2 miles    
Events      
T = Trace of Precipitation, MM = Missing Value Source: Averaged Metar Reports

Daily Weather History Graph

Daily Weather History Graph

Search for Another Location

Airport or City:

Trip Planner

Search our weather history database for the weather conditions in past years. The results will help you decide how hot, cold, wet, or windy it might be!

Date:

Astronomy

May. 19, 2013 Rise Set
Actual Time 6:13 AM EEST 8:45 PM EEST
Civil Twilight 5:42 AM EEST 9:17 PM EEST
Nautical Twilight 5:03 AM EEST 9:56 PM EEST
Astronomical Twilight 4:20 AM EEST 10:39 PM EEST
Moon 2:30 PM EEST (5/19) 2:28 AM EEST (5/19)
Length of Visible Light 15h 34m
Length of Day
14h 32m
Waxing Gibbous, 62% of the Moon is Illuminated
May 19
Waxing Gibbous
May 25
Full
May 31
Last Quarter
Jun 8
New
Jun 16
First Quarter

Hourly Weather History & Observations

Time (EEST) Temp. Dew Point Humidity Pressure Visibility Wind Dir Wind Speed Gust Speed Precip Events Conditions
12:20 AM 62.6 °F 46.4 °F 55% 30.06 in - NW 6.9 mph - N/A   Unknown
12:50 AM 64.4 °F 44.6 °F 49% 30.06 in - NW 6.9 mph - N/A   Unknown
1:20 AM 66.2 °F 44.6 °F 46% 30.06 in - NNW 5.8 mph - N/A   Unknown
1:50 AM 60.8 °F 44.6 °F 55% 30.06 in - NNW 5.8 mph - N/A   Unknown
2:20 AM 59.0 °F 46.4 °F 63% 30.04 in - NW 6.9 mph - N/A   Unknown
2:50 AM 60.8 °F 44.6 °F 55% 30.04 in - NW 5.8 mph - N/A   Unknown
3:20 AM 60.8 °F 44.6 °F 55% 30.04 in - NNW 5.8 mph - N/A   Unknown
3:50 AM 59.0 °F 44.6 °F 59% 30.04 in - NNW 4.6 mph - N/A   Unknown
4:20 AM 57.2 °F 44.6 °F 63% 30.04 in - NNW 8.1 mph - N/A   Unknown
4:50 AM 57.2 °F 44.6 °F 63% 30.04 in - North 5.8 mph - N/A   Unknown
5:20 AM 59.0 °F 44.6 °F 59% 30.04 in - Variable 3.5 mph - N/A   Unknown
5:50 AM 57.2 °F 44.6 °F 63% 30.04 in - Variable 3.5 mph - N/A   Unknown
6:20 AM 53.6 °F 44.6 °F 72% 30.04 in - Variable 3.5 mph - N/A   Unknown
6:50 AM 55.4 °F 44.6 °F 67% 30.06 in - Variable 2.3 mph - N/A   Unknown
7:20 AM 59.0 °F 46.4 °F 63% 30.04 in - North 5.8 mph - N/A   Unknown
7:50 AM 64.4 °F 48.2 °F 56% 30.06 in - Variable 1.2 mph - N/A   Unknown
8:20 AM 66.2 °F 46.4 °F 49% 30.06 in - Calm Calm - N/A   Unknown
8:50 AM 68.0 °F 50.0 °F 52% 30.06 in - Calm Calm - N/A   Unknown
9:20 AM 71.6 °F 46.4 °F 41% 30.06 in - Variable 2.3 mph - N/A   Unknown
9:50 AM 71.6 °F 48.2 °F 43% 30.06 in - Variable 2.3 mph - N/A   Unknown
10:20 AM 73.4 °F 50.0 °F 44% 30.06 in - Variable 3.5 mph - N/A   Unknown
10:50 AM 75.2 °F 50.0 °F 41% 30.06 in - Variable 3.5 mph - N/A   Unknown
11:20 AM 78.8 °F 46.4 °F 32% 30.04 in - Variable 2.3 mph - N/A   Unknown
11:50 AM 78.8 °F 46.4 °F 32% 30.04 in - Variable 2.3 mph - N/A   Unknown
12:20 PM 82.4 °F 44.6 °F 26% 30.04 in - Variable 2.3 mph - N/A   Unknown
12:50 PM 82.4 °F 44.6 °F 26% 30.04 in - Variable 3.5 mph - N/A   Unknown
1:20 PM 82.4 °F 41.0 °F 23% 30.04 in - SE 4.6 mph - N/A   Unknown
1:50 PM 84.2 °F 41.0 °F 22% 30.01 in - South 5.8 mph - N/A   Unknown
2:20 PM 86.0 °F 41.0 °F 20% 30.01 in - SE 6.9 mph - N/A   Unknown
2:50 PM 84.2 °F 41.0 °F 22% 30.01 in 6.2 mi ESE 6.9 mph - N/A   Partly Cloudy
3:50 PM 86.0 °F 39.2 °F 19% 29.98 in - Calm Calm - N/A   Clear
4:50 PM 86.0 °F 41.0 °F 20% 29.95 in 6.2 mi SSE 9.2 mph - N/A   Partly Cloudy
5:50 PM 86.0 °F 42.8 °F 22% 29.95 in 6.2 mi SSW 8.1 mph - N/A   Partly Cloudy
6:50 PM 82.4 °F 44.6 °F 26% 29.95 in 6.2 mi SSW 5.8 mph - N/A   Partly Cloudy
7:50 PM 77.0 °F 46.4 °F 34% 29.95 in 6.2 mi South 6.9 mph - N/A   Partly Cloudy
8:50 PM 73.4 °F 50.0 °F 44% 29.95 in - West 5.8 mph - N/A   Clear
9:20 PM 71.6 °F 48.2 °F 43% 29.95 in - Variable 3.5 mph - N/A   Unknown
9:50 PM 66.2 °F 50.0 °F 56% 29.98 in - NNE 4.6 mph - N/A   Unknown
10:20 PM 66.2 °F 48.2 °F 52% 29.98 in - Variable 2.3 mph - N/A   Unknown
10:50 PM 66.2 °F 48.2 °F 52% 30.01 in - Variable 3.5 mph - N/A   Unknown
11:20 PM 64.4 °F 50.0 °F 59% 29.98 in - Variable 2.3 mph - N/A   Unknown
11:50 PM 64.4 °F 50.0 °F 59% 29.98 in - Variable 2.3 mph - N/A   Unknown